STARLINK-37263, 68544

Orbit data source: Space-Track

STARLINK-37263, 68544 is a payload satellite owned by SpaceX/Seattle (US) in LEO that was launched on Thu, 02 Apr 2026 UTC via an FALCON 9 launch vehicle from the Air Force Eastern Test Range (AFETR). Payload-class satellites include a variety of spacecraft equipped with specific instruments for various scientific and technological missions. These include communications satellites like Starlink; space stations such as the ISS; scientific satellites like the Hubble; Earth observation satellites from companies like Planet Labs, Umbra, and HawkEye 360; GPS; miniature CubeSats for education and research; and military/defense satellites.

Loading next visibility...
Identifier
68544, 2026-070C
Orbit
LEO
Country
Flag of USUS
Related business
Manufacturer
SpaceX/Seattle
Mission
Operational spacecraft
Bus & Motor
STARLINK V2MO, Unknown motor
Mass
575 kg wet, ~530 kg dry
Launch date (UTC)
2026-04-02 (2 months ago)
Launch vehicle
FALCON 9
Launch site
Air Force Eastern Test Range (AFETR)
Object type
Payload
Rocket body
Debris
Shape & HBR
Unknown shape, 14.5 m
Radar Cross Section
RCS unknown

Expand to show TLE details & history
Last TLE update: 5 hours ago

TLE from 5 hours ago
0 STARLINK-37263
1 68544U 26070C   26138.83335647 -.02410145  00000-0 -62525-1 0  9991
2 68544  53.1593  36.7633 0001208 106.0382 278.2857 15.42066424  6014
Epoch: 2026-05-18T20:00Z
TLE epoch observation values (Epoch: 2026-05-18T20:00:01.999Z)
Latitude
19.27483°
Longitude
-124.65872°
Altitude
440.309 km
Speed
7.651 km/s
True Right ascension
03h 27m 27s
True Declination
19° 09' 47"
Sunlit
Object was in daylight at epoch
Visualization orbit readout
Latitude
Unknown
Longitude
Unknown
Altitude
Unknown
Speed
Unknown
Apparent Right ascension
Unknown
Apparent Declination
Unknown
Sunlit
N/A
Visualization observer readout
Local Sidereal Time
09:51:19
Azimuth
Unknown
Elevation
Unknown
Doppler factor
Unknown
Orbital elements
Apogee altitude
441.093 km
Perigee altitude
439.446 km
Semi-major axis
6,818.406 km
Eccentricity
0.00012
Inclination
53.1593°
RAAN
36.7633°
Arg. of periapsis
106.0382°
True anomaly
278.272°
Mean anomaly
278.2857°
Eccentric anomaly
278.27885°
Mean motion
3.85495 °/min
Orbital period
93.39 mins
BSTAR
-0.062525
Loading maneuver chart data...
Computing Atmospheric mass density...
Loading historical data...
Loading historical data...
Loading historical data...
Loading historical data...
Loading historical data...
Loading historical data...
Loading historical data...

Documentation

Showing up to 5 results
|